| time (UTC) | temp C | wind direction | speed KPH | gust KPH | rain 1hr cm | rain 24hr cm | rain mn cm | humidity % | barometer mb |
| 20260509135836 | 27 | 83 | 3.2 | 6.4 | 0.00 | 0.00 | 0.00 | 85 | 1014.3 |
| 20260509134805 | 26 | 88 | 3.2 | 6.4 | 0.00 | 0.00 | 0.00 | 86 | 1014.3 |
| 20260509133236 | 26 | 38 | 3.2 | 6.4 | 0.00 | 0.00 | 0.00 | 87 | 1014.3 |
| 20260509132706 | 26 | 37 | 3.2 | 6.4 | 0.00 | 0.00 | 0.00 | 88 | 1014.2 |
| 20260509132206 | 26 | 61 | 3.2 | 4.8 | 0.00 | 0.00 | 0.00 | 89 | 1014.3 |
| 20260509131706 | 26 | 61 | 3.2 | 4.8 | 0.00 | 0.00 | 0.00 | 89 | 1014.3 |
| 20260509131135 | 26 | 56 | 3.2 | 4.8 | 0.00 | 0.00 | 0.00 | 88 | 1014.2 |
| 20260509130635 | 26 | 71 | 3.2 | 4.8 | 0.00 | 0.00 | 0.00 | 87 | 1014.2 |
| 20260509130135 | 26 | 72 | 1.6 | 4.8 | 0.00 | 0.00 | 0.00 | 86 | 1014.2 |
| 20260509125636 | 26 | 49 | 1.6 | 4.8 | 0.00 | 0.00 | 0.00 | 87 | 1014.0 |
| 20260509125459 | 26 | 54 | 1.6 | 4.8 | 0.00 | 0.00 | 0.00 | 86 | 1014.2 |
| 20260509125135 | 26 | 54 | 1.6 | 4.8 | 0.00 | 0.00 | 0.00 | 86 | 1014.2 |
| 20260509123605 | 25 | 355 | 1.6 | 3.2 | 0.00 | 0.00 | 0.00 | 90 | 1014.0 |
| 20260509122605 | 25 | 49 | 0.0 | 3.2 | 0.00 | 0.00 | 0.00 | 92 | 1014.0 |
| 20260509122035 | 24 | 90 | 1.6 | 3.2 | 0.00 | 0.00 | 0.00 | 93 | 1014.1 |
| 20260509121505 | 24 | 98 | 1.6 | 4.8 | 0.00 | 0.00 | 0.00 | 93 | 1013.9 |
| 20260509121005 | 24 | 105 | 1.6 | 4.8 | 0.00 | 0.00 | 0.00 | 94 | 1013.8 |
| 20260509120436 | 24 | 103 | 3.2 | 6.4 | 0.00 | 0.00 | 0.00 | 95 | 1013.6 |
| 20260509115335 | 24 | 101 | 1.6 | 6.4 | 0.00 | 0.00 | 0.00 | 96 | 1013.6 |
| 20260509114336 | 23 | 106 | 1.6 | 4.8 | 0.00 | 0.00 | 0.00 | 99 | 1013.3 |
| 20260509112805 | 23 | 162 | 1.6 | 6.4 | 0.00 | 0.00 | 0.00 | 99 | 1013.0 |
| 20260509111305 | 22 | 100 | 1.6 | 3.2 | 0.00 | 0.00 | 0.00 | 99 | 1013.1 |
| 20260509110555 | 22 | 104 | 3.2 | 6.4 | 0.00 | 0.00 | 0.00 | 99 | 1013.0 |
| 20260509110235 | 22 | 104 | 3.2 | 6.4 | 0.00 | 0.00 | 0.00 | 99 | 1013.0 |
| 20260509105447 | 22 | 106 | 3.2 | 6.4 | 0.00 | 0.00 | 0.00 | 99 | 1013.0 |
| 20260509105236 | 22 | 106 | 3.2 | 6.4 | 0.00 | 0.00 | 0.00 | 99 | 1013.0 |
| 20260509104235 | 22 | 107 | 0.0 | 4.8 | 0.00 | 0.00 | 0.00 | 99 | 1012.7 |
| 20260509103206 | 22 | 103 | 1.6 | 3.2 | 0.00 | 0.00 | 0.00 | 98 | 1012.7 |
| 20260509101106 | 22 | 316 | 0.0 | 1.6 | 0.00 | 0.00 | 0.00 | 98 | 1012.9 |
| 20260509100606 | 22 | 316 | 0.0 | 1.6 | 0.00 | 0.00 | 0.00 | 97 | 1012.9 |
| 20260509100249 | 22 | 316 | 0.0 | 1.6 | 0.00 | 0.00 | 0.00 | 97 | 1013.0 |
| 20260509100035 | 22 | 316 | 0.0 | 1.6 | 0.00 | 0.00 | 0.00 | 97 | 1013.0 |
| 20260509095505 | 22 | 316 | 0.0 | 1.6 | 0.00 | 0.00 | 0.00 | 97 | 1012.9 |
| 20260509094936 | 22 | 316 | 0.0 | 1.6 | 0.00 | 0.00 | 0.00 | 97 | 1012.8 |
| 20260509093906 | 22 | 316 | 0.0 | 1.6 | 0.00 | 0.00 | 0.00 | 97 | 1013.0 |
| 20260509093813 | 22 | 316 | 0.0 | 1.6 | 0.00 | 0.00 | 0.00 | 96 | 1012.8 |
| 20260509093405 | 22 | 316 | 0.0 | 1.6 | 0.00 | 0.00 | 0.00 | 96 | 1012.8 |
| 20260509092906 | 22 | 316 | 0.0 | 1.6 | 0.00 | 0.00 | 0.00 | 97 | 1012.8 |
| 20260509091235 | 23 | 316 | 0.0 | 1.6 | 0.00 | 0.00 | 0.00 | 96 | 1013.0 |
| 20260509090205 | 23 | 316 | 0.0 | 3.2 | 0.00 | 0.00 | 0.00 | 96 | 1013.0 |
| 20260509085205 | 23 | 316 | 1.6 | 3.2 | 0.00 | 0.00 | 0.00 | 96 | 1012.9 |
| 20260509084705 | 23 | 317 | 1.6 | 3.2 | 0.00 | 0.00 | 0.00 | 96 | 1012.9 |
| 20260509084136 | 23 | 319 | 1.6 | 3.2 | 0.00 | 0.00 | 0.00 | 96 | 1012.9 |
| 20260509083635 | 23 | 318 | 1.6 | 3.2 | 0.00 | 0.00 | 0.00 | 96 | 1013.4 |
| 20260509083136 | 23 | 322 | 1.6 | 3.2 | 0.00 | 0.00 | 0.00 | 96 | 1013.0 |
| 20260509082636 | 23 | 327 | 1.6 | 3.2 | 0.00 | 0.00 | 0.00 | 96 | 1013.1 |
| 20260509082105 | 23 | 329 | 1.6 | 3.2 | 0.00 | 0.00 | 0.00 | 96 | 1013.1 |
| 20260509081605 | 23 | 329 | 0.0 | 1.6 | 0.00 | 0.00 | 0.00 | 96 | 1013.2 |
| 20260509081035 | 23 | 329 | 0.0 | 1.6 | 0.00 | 0.00 | 0.00 | 95 | 1013.1 |
| 20260509075935 | 23 | 329 | 0.0 | 1.6 | 0.00 | 0.00 | 0.00 | 95 | 1013.3 |
| 20260509074906 | 23 | 0 | 0.0 | 0.0 | 0.00 | 0.00 | 0.00 | 95 | 1013.2 |
| 20260509074336 | 23 | 329 | 0.0 | 1.6 | 0.00 | 0.00 | 0.00 | 94 | 1013.4 |
| 20260509073336 | 23 | 339 | 0.0 | 1.6 | 0.00 | 0.00 | 0.00 | 94 | 1013.4 |
| 20260509072306 | 23 | 340 | 0.0 | 1.6 | 0.00 | 0.00 | 0.00 | 93 | 1013.4 |
| 20260509071736 | 23 | 340 | 0.0 | 1.6 | 0.00 | 0.00 | 0.00 | 93 | 1013.5 |
| 20260509071206 | 23 | 340 | 0.0 | 1.6 | 0.00 | 0.00 | 0.00 | 93 | 1013.5 |
| 20260509070636 | 23 | 341 | 0.0 | 1.6 | 0.00 | 0.00 | 0.00 | 93 | 1013.5 |
| 20260509070105 | 23 | 339 | 0.0 | 3.2 | 0.00 | 0.00 | 0.00 | 93 | 1013.6 |
| 20260509065536 | 23 | 335 | 1.6 | 3.2 | 0.00 | 0.00 | 0.00 | 93 | 1013.6 |
| 20260509064506 | 23 | 322 | 1.6 | 3.2 | 0.00 | 0.00 | 0.00 | 92 | 1013.7 |
| 20260509064005 | 23 | 322 | 1.6 | 3.2 | 0.00 | 0.00 | 0.00 | 92 | 1013.7 |
| 20260509063505 | 23 | 328 | 1.6 | 3.2 | 0.00 | 0.00 | 0.00 | 92 | 1013.7 |
| 20260509063005 | 23 | 329 | 1.6 | 3.2 | 0.00 | 0.00 | 0.00 | 92 | 1013.9 |
| 20260509062435 | 23 | 319 | 1.6 | 3.2 | 0.00 | 0.00 | 0.00 | 91 | 1013.9 |
| 20260509061935 | 24 | 316 | 1.6 | 3.2 | 0.00 | 0.00 | 0.00 | 91 | 1013.9 |
| 20260509061406 | 24 | 320 | 1.6 | 3.2 | 0.00 | 0.00 | 0.00 | 91 | 1014.0 |
| 20260509060835 | 24 | 321 | 1.6 | 3.2 | 0.00 | 0.00 | 0.00 | 91 | 1014.0 |
| 20260509060305 | 24 | 326 | 1.6 | 3.2 | 0.00 | 0.00 | 0.00 | 91 | 1014.0 |
| 20260509055235 | 24 | 330 | 1.6 | 3.2 | 0.00 | 0.00 | 0.00 | 90 | 1014.3 |
| 20260509054735 | 24 | 320 | 1.6 | 3.2 | 0.00 | 0.00 | 0.00 | 90 | 1014.5 |
| 20260509054205 | 24 | 318 | 1.6 | 3.2 | 0.00 | 0.00 | 0.00 | 90 | 1014.4 |
| 20260509053705 | 24 | 315 | 1.6 | 3.2 | 0.00 | 0.00 | 0.00 | 90 | 1014.6 |
| 20260509053135 | 24 | 309 | 1.6 | 3.2 | 0.00 | 0.00 | 0.00 | 90 | 1014.7 |
| 20260509052635 | 24 | 314 | 1.6 | 3.2 | 0.00 | 0.00 | 0.00 | 90 | 1014.7 |
| 20260509052106 | 24 | 319 | 1.6 | 4.8 | 0.00 | 0.00 | 0.00 | 89 | 1014.8 |
| 20260509051606 | 25 | 315 | 1.6 | 4.8 | 0.00 | 0.00 | 0.00 | 89 | 1014.8 |
| 20260509050605 | 25 | 295 | 1.6 | 4.8 | 0.00 | 0.00 | 0.00 | 88 | 1014.9 |
| 20260509050105 | 25 | 301 | 1.6 | 4.8 | 0.00 | 0.00 | 0.00 | 88 | 1014.9 |
| 20260509045605 | 25 | 312 | 1.6 | 3.2 | 0.00 | 0.00 | 0.00 | 87 | 1014.9 |
| 20260509044536 | 25 | 316 | 1.6 | 4.8 | 0.00 | 0.00 | 0.00 | 86 | 1014.9 |
| 20260509044005 | 25 | 318 | 3.2 | 4.8 | 0.00 | 0.00 | 0.00 | 86 | 1015.0 |
| 20260509043505 | 25 | 324 | 3.2 | 4.8 | 0.00 | 0.00 | 0.00 | 86 | 1015.0 |
| 20260509043005 | 25 | 325 | 1.6 | 4.8 | 0.00 | 0.00 | 0.00 | 85 | 1014.9 |
| 20260509042437 | 25 | 317 | 1.6 | 4.8 | 0.00 | 0.00 | 0.00 | 85 | 1014.9 |
| 20260509041905 | 25 | 319 | 1.6 | 4.8 | 0.00 | 0.00 | 0.00 | 84 | 1014.8 |
| 20260509041416 | 25 | 323 | 3.2 | 6.4 | 0.00 | 0.00 | 0.00 | 84 | 1014.9 |
| 20260509041336 | 25 | 323 | 3.2 | 6.4 | 0.00 | 0.00 | 0.00 | 84 | 1014.9 |
| 20260509040805 | 25 | 319 | 3.2 | 6.4 | 0.00 | 0.00 | 0.00 | 83 | 1015.1 |
| 20260509035205 | 26 | 332 | 3.2 | 6.4 | 0.00 | 0.00 | 0.00 | 82 | 1015.1 |
| 20260509034705 | 26 | 331 | 3.2 | 6.4 | 0.00 | 0.00 | 0.00 | 81 | 1015.0 |
| 20260509034135 | 26 | 333 | 3.2 | 6.4 | 0.00 | 0.00 | 0.00 | 80 | 1015.1 |
| 20260509033635 | 26 | 334 | 3.2 | 4.8 | 0.00 | 0.00 | 0.00 | 80 | 1015.1 |
| 20260509033105 | 26 | 338 | 3.2 | 6.4 | 0.00 | 0.00 | 0.00 | 79 | 1014.9 |
| 20260509032105 | 26 | 333 | 3.2 | 4.8 | 0.00 | 0.00 | 0.00 | 78 | 1014.8 |
| 20260509031535 | 26 | 342 | 3.2 | 6.4 | 0.00 | 0.00 | 0.00 | 78 | 1015.0 |
| 20260509031035 | 26 | 334 | 3.2 | 6.4 | 0.00 | 0.00 | 0.00 | 77 | 1014.9 |
| 20260509030536 | 26 | 335 | 3.2 | 8.0 | 0.00 | 0.00 | 0.00 | 77 | 1015.0 |
| 20260509030005 | 26 | 346 | 3.2 | 8.0 | 0.00 | 0.00 | 0.00 | 76 | 1014.9 |
| 20260509025505 | 26 | 351 | 4.8 | 8.0 | 0.00 | 0.00 | 0.00 | 76 | 1014.8 |
| 20260509025006 | 27 | 352 | 3.2 | 8.0 | 0.00 | 0.00 | 0.00 | 75 | 1014.8 |
| 20260509023935 | 27 | 355 | 3.2 | 8.0 | 0.00 | 0.00 | 0.00 | 73 | 1014.9 |
| 20260509023405 | 27 | 2 | 4.8 | 8.0 | 0.00 | 0.00 | 0.00 | 73 | 1014.8 |
| 20260509022905 | 27 | 357 | 4.8 | 8.0 | 0.00 | 0.00 | 0.00 | 72 | 1014.8 |
| 20260509022335 | 27 | 4 | 3.2 | 8.0 | 0.00 | 0.00 | 0.00 | 72 | 1014.7 |
| 20260509021305 | 27 | 359 | 3.2 | 6.4 | 0.00 | 0.00 | 0.00 | 71 | 1014.6 |
| 20260509020805 | 27 | 3 | 3.2 | 6.4 | 0.00 | 0.00 | 0.00 | 71 | 1014.5 |
| 20260509020305 | 27 | 9 | 3.2 | 6.4 | 0.00 | 0.00 | 0.00 | 70 | 1014.4 |
| 20260509015235 | 28 | 1 | 3.2 | 6.4 | 0.00 | 0.00 | 0.00 | 70 | 1014.2 |
| 20260509014705 | 28 | 2 | 3.2 | 6.4 | 0.00 | 0.00 | 0.00 | 70 | 1014.1 |
| 20260509014135 | 28 | 353 | 1.6 | 4.8 | 0.00 | 0.00 | 0.00 | 70 | 1014.0 |
| 20260509013635 | 28 | 344 | 3.2 | 6.4 | 0.00 | 0.00 | 0.00 | 70 | 1013.9 |
| 20260509013135 | 28 | 340 | 3.2 | 8.0 | 0.00 | 0.00 | 0.00 | 70 | 1013.8 |
| 20260509012035 | 28 | 325 | 3.2 | 6.4 | 0.00 | 0.00 | 0.00 | 70 | 1013.6 |
| 20260509011535 | 28 | 320 | 3.2 | 8.0 | 0.00 | 0.00 | 0.00 | 70 | 1013.6 |
| 20260509011035 | 28 | 321 | 3.2 | 8.0 | 0.00 | 0.00 | 0.00 | 70 | 1013.5 |
| 20260509010535 | 28 | 320 | 3.2 | 6.4 | 0.00 | 0.00 | 0.00 | 68 | 1013.5 |
| 20260509010006 | 29 | 313 | 4.8 | 8.0 | 0.00 | 0.00 | 0.00 | 67 | 1013.4 |
| 20260509005505 | 29 | 311 | 4.8 | 8.0 | 0.00 | 0.00 | 0.00 | 67 | 1013.3 |
| 20260509004935 | 29 | 313 | 4.8 | 11.3 | 0.00 | 0.00 | 0.00 | 66 | 1013.2 |
| 20260509004405 | 29 | 316 | 4.8 | 11.3 | 0.00 | 0.00 | 0.00 | 65 | 1013.1 |
| 20260509003836 | 30 | 316 | 3.2 | 6.4 | 0.00 | 0.00 | 0.00 | 65 | 1013.0 |
| 20260509002805 | 30 | 312 | 3.2 | 6.4 | 0.00 | 0.00 | 0.00 | 65 | 1012.8 |
| 20260509002236 | 30 | 308 | 3.2 | 6.4 | 0.00 | 0.00 | 0.00 | 64 | 1012.7 |
| 20260509001705 | 30 | 301 | 3.2 | 4.8 | 0.00 | 0.00 | 0.00 | 62 | 1012.6 |
| 20260509001205 | 31 | 292 | 3.2 | 9.7 | 0.00 | 0.00 | 0.00 | 61 | 1012.4 |
| 20260508235535 | 31 | 286 | 6.4 | 14.5 | 0.00 | 0.00 | 0.00 | 58 | 1012.0 |
| 20260508235005 | 31 | 283 | 4.8 | 14.5 | 0.00 | 0.00 | 0.00 | 58 | 1011.9 |
| 20260508234603 | 31 | 280 | 4.8 | 14.5 | 0.00 | 0.00 | 0.00 | 58 | 1011.8 |
| 20260508234505 | 31 | 280 | 4.8 | 14.5 | 0.00 | 0.00 | 0.00 | 58 | 1011.8 |
| 20260508232905 | 32 | 268 | 4.8 | 14.5 | 0.00 | 0.00 | 0.00 | 57 | 1011.7 |
| 20260508232335 | 32 | 261 | 4.8 | 11.3 | 0.00 | 0.00 | 0.00 | 57 | 1011.7 |
| 20260508231835 | 32 | 252 | 4.8 | 11.3 | 0.00 | 0.00 | 0.00 | 57 | 1011.6 |
| 20260508231532 | 32 | 246 | 4.8 | 11.3 | 0.00 | 0.00 | 0.00 | 56 | 1011.5 |
| 20260508231305 | 32 | 246 | 4.8 | 11.3 | 0.00 | 0.00 | 0.00 | 56 | 1011.5 |
| 20260508230805 | 32 | 241 | 4.8 | 11.3 | 0.00 | 0.00 | 0.00 | 56 | 1011.4 |
| 20260508230305 | 32 | 233 | 3.2 | 11.3 | 0.00 | 0.00 | 0.00 | 54 | 1011.4 |
| 20260508225235 | 32 | 240 | 3.2 | 9.7 | 0.00 | 0.00 | 0.00 | 54 | 1011.3 |
| 20260508224833 | 32 | 248 | 3.2 | 9.7 | 0.00 | 0.00 | 0.00 | 53 | 1011.4 |
| 20260508224735 | 32 | 248 | 3.2 | 9.7 | 0.00 | 0.00 | 0.00 | 53 | 1011.4 |
| 20260508224235 | 32 | 257 | 3.2 | 8.0 | 0.00 | 0.00 | 0.00 | 53 | 1011.2 |
| 20260508223735 | 32 | 254 | 3.2 | 9.7 | 0.00 | 0.00 | 0.00 | 52 | 1011.2 |
| 20260508223235 | 32 | 256 | 3.2 | 9.7 | 0.00 | 0.00 | 0.00 | 51 | 1011.2 |
| 20260508222735 | 33 | 261 | 3.2 | 8.0 | 0.00 | 0.00 | 0.00 | 51 | 1011.2 |
| 20260508222205 | 33 | 258 | 3.2 | 8.0 | 0.00 | 0.00 | 0.00 | 51 | 1011.1 |
| 20260508221705 | 33 | 247 | 1.6 | 8.0 | 0.00 | 0.00 | 0.00 | 50 | 1011.2 |
| 20260508221135 | 33 | 206 | 1.6 | 3.2 | 0.00 | 0.00 | 0.00 | 50 | 1011.1 |
| 20260508220635 | 33 | 163 | 1.6 | 3.2 | 0.00 | 0.00 | 0.00 | 52 | 1011.2 |
| 20260508220105 | 33 | 133 | 1.6 | 4.8 | 0.00 | 0.00 | 0.00 | 54 | 1011.3 |
| 20260508215535 | 33 | 93 | 3.2 | 9.7 | 0.00 | 0.00 | 0.00 | 53 | 1011.3 |
| 20260508215035 | 33 | 89 | 3.2 | 9.7 | 0.00 | 0.00 | 0.00 | 51 | 1011.2 |
| 20260508214535 | 33 | 108 | 1.6 | 9.7 | 0.00 | 0.00 | 0.00 | 52 | 1011.3 |
| 20260508214035 | 33 | 117 | 1.6 | 4.8 | 0.00 | 0.00 | 0.00 | 52 | 1011.2 |
| 20260508213505 | 33 | 107 | 3.2 | 6.4 | 0.00 | 0.00 | 0.00 | 50 | 1011.2 |
| 20260508213005 | 34 | 108 | 4.8 | 6.4 | 0.00 | 0.00 | 0.00 | 53 | 1011.2 |
| 20260508212505 | 34 | 105 | 4.8 | 6.4 | 0.00 | 0.00 | 0.00 | 52 | 1011.3 |
| 20260508211935 | 34 | 105 | 4.8 | 9.7 | 0.00 | 0.00 | 0.00 | 52 | 1011.3 |
| 20260508211405 | 34 | 108 | 4.8 | 11.3 | 0.00 | 0.00 | 0.00 | 51 | 1011.3 |
| 20260508210835 | 34 | 107 | 3.2 | 11.3 | 0.00 | 0.00 | 0.00 | 51 | 1011.4 |
| 20260508210335 | 34 | 112 | 1.6 | 4.8 | 0.00 | 0.00 | 0.00 | 52 | 1011.4 |
| 20260508205835 | 34 | 109 | 3.2 | 9.7 | 0.00 | 0.00 | 0.00 | 53 | 1011.4 |
| 20260508205306 | 34 | 106 | 4.8 | 9.7 | 0.00 | 0.00 | 0.00 | 52 | 1011.5 |
| 20260508204805 | 34 | 104 | 4.8 | 9.7 | 0.00 | 0.00 | 0.00 | 52 | 1011.6 |
| 20260508204235 | 33 | 97 | 3.2 | 9.7 | 0.00 | 0.00 | 0.00 | 54 | 1011.6 |
| 20260508203735 | 33 | 106 | 1.6 | 9.7 | 0.00 | 0.00 | 0.00 | 53 | 1011.7 |
| 20260508203205 | 33 | 121 | 1.6 | 4.8 | 0.00 | 0.00 | 0.00 | 53 | 1011.9 |
| 20260508202705 | 33 | 118 | 1.6 | 4.8 | 0.00 | 0.00 | 0.00 | 52 | 1012.0 |
| 20260508202135 | 34 | 121 | 1.6 | 4.8 | 0.00 | 0.00 | 0.00 | 52 | 1012.0 |
| 20260508201635 | 34 | 124 | 1.6 | 6.4 | 0.00 | 0.00 | 0.00 | 51 | 1012.0 |
| 20260508200535 | 35 | 97 | 4.8 | 9.7 | 0.00 | 0.00 | 0.00 | 52 | 1012.1 |
| 20260508200005 | 35 | 99 | 4.8 | 11.3 | 0.00 | 0.00 | 0.00 | 50 | 1012.2 |
| 20260508195622 | 35 | 115 | 4.8 | 11.3 | 0.00 | 0.00 | 0.00 | 54 | 1012.2 |
| 20260508195505 | 35 | 115 | 4.8 | 11.3 | 0.00 | 0.00 | 0.00 | 54 | 1012.2 |
| 20260508195005 | 35 | 112 | 4.8 | 11.3 | 0.00 | 0.00 | 0.00 | 51 | 1012.2 |
| 20260508194629 | 35 | 98 | 4.8 | 14.5 | 0.00 | 0.00 | 0.00 | 53 | 1012.3 |
| 20260508194505 | 35 | 98 | 4.8 | 14.5 | 0.00 | 0.00 | 0.00 | 53 | 1012.3 |
| 20260508193505 | 35 | 103 | 9.7 | 19.3 | 0.00 | 0.00 | 0.00 | 52 | 1012.6 |
| 20260508193005 | 35 | 102 | 4.8 | 19.3 | 0.00 | 0.00 | 0.00 | 53 | 1012.6 |
| 20260508192505 | 35 | 103 | 6.4 | 12.9 | 0.00 | 0.00 | 0.00 | 51 | 1012.7 |
| 20260508192005 | 36 | 105 | 6.4 | 12.9 | 0.00 | 0.00 | 0.00 | 52 | 1012.8 |
| 20260508191505 | 36 | 109 | 4.8 | 12.9 | 0.00 | 0.00 | 0.00 | 50 | 1012.9 |
| 20260508185405 | 34 | 55 | 3.2 | 6.4 | 0.00 | 0.00 | 0.00 | 54 | 1013.3 |
| 20260508184835 | 34 | 340 | 3.2 | 8.0 | 0.00 | 0.00 | 0.00 | 53 | 1013.4 |
| 20260508184335 | 34 | 213 | 3.2 | 8.0 | 0.00 | 0.00 | 0.00 | 53 | 1013.5 |
| 20260508183835 | 34 | 165 | 3.2 | 11.3 | 0.00 | 0.00 | 0.00 | 52 | 1013.7 |
| 20260508183305 | 35 | 89 | 3.2 | 11.3 | 0.00 | 0.00 | 0.00 | 54 | 1013.7 |
| 20260508182735 | 34 | 60 | 3.2 | 11.3 | 0.00 | 0.00 | 0.00 | 53 | 1013.7 |
| 20260508182235 | 34 | 308 | 3.2 | 6.4 | 0.00 | 0.00 | 0.00 | 53 | 1013.8 |
| 20260508181705 | 33 | 322 | 3.2 | 6.4 | 0.00 | 0.00 | 0.00 | 53 | 1013.9 |
| 20260508181135 | 33 | 28 | 3.2 | 6.4 | 0.00 | 0.00 | 0.00 | 54 | 1013.9 |
| 20260508180635 | 33 | 82 | 3.2 | 4.8 | 0.00 | 0.00 | 0.00 | 55 | 1014.0 |
| 20260508180105 | 33 | 100 | 3.2 | 9.7 | 0.00 | 0.00 | 0.00 | 58 | 1014.2 |
| 20260508175605 | 32 | 141 | 3.2 | 9.7 | 0.00 | 0.00 | 0.00 | 62 | 1014.2 |
| 20260508175035 | 32 | 256 | 1.6 | 4.8 | 0.00 | 0.00 | 0.00 | 60 | 1014.3 |
| 20260508174505 | 31 | 248 | 1.6 | 4.8 | 0.00 | 0.00 | 0.00 | 60 | 1014.4 |
| 20260508174006 | 32 | 168 | 3.2 | 6.4 | 0.00 | 0.00 | 0.00 | 58 | 1014.3 |
| 20260508173506 | 32 | 103 | 4.8 | 11.3 | 0.00 | 0.00 | 0.00 | 57 | 1014.4 |
| 20260508172505 | 32 | 90 | 4.8 | 12.9 | 0.00 | 0.00 | 0.00 | 57 | 1014.5 |
| 20260508171935 | 33 | 108 | 3.2 | 6.4 | 0.00 | 0.00 | 0.00 | 59 | 1014.6 |
| 20260508171405 | 33 | 114 | 3.2 | 9.7 | 0.00 | 0.00 | 0.00 | 60 | 1014.6 |
| 20260508170835 | 32 | 101 | 4.8 | 9.7 | 0.00 | 0.00 | 0.00 | 58 | 1014.7 |
| 20260508170305 | 32 | 104 | 4.8 | 9.7 | 0.00 | 0.00 | 0.00 | 60 | 1014.7 |
| 20260508165805 | 32 | 129 | 1.6 | 6.4 | 0.00 | 0.00 | 0.00 | 61 | 1014.9 |
| 20260508165307 | 32 | 18 | 1.6 | 6.4 | 0.00 | 0.00 | 0.00 | 61 | 1014.9 |
| 20260508164805 | 32 | 39 | 3.2 | 4.8 | 0.00 | 0.00 | 0.00 | 60 | 1015.0 |
| 20260508164305 | 32 | 33 | 3.2 | 6.4 | 0.00 | 0.00 | 0.00 | 61 | 1015.1 |
| 20260508163735 | 32 | 8 | 3.2 | 6.4 | 0.00 | 0.00 | 0.00 | 63 | 1015.2 |
| 20260508163235 | 31 | 350 | 3.2 | 6.4 | 0.00 | 0.00 | 0.00 | 62 | 1015.4 |
| 20260508162735 | 31 | 20 | 3.2 | 6.4 | 0.00 | 0.00 | 0.00 | 62 | 1015.4 |
| 20260508162435 | 31 | 357 | 3.2 | 6.4 | 0.00 | 0.00 | 0.00 | 62 | 1015.5 |
| 20260508162235 | 31 | 357 | 3.2 | 6.4 | 0.00 | 0.00 | 0.00 | 62 | 1015.5 |
| 20260508161735 | 31 | 338 | 3.2 | 6.4 | 0.00 | 0.00 | 0.00 | 63 | 1015.5 |
| 20260508160705 | 31 | 349 | 1.6 | 4.8 | 0.00 | 0.00 | 0.00 | 64 | 1015.7 |
| 20260508155135 | 31 | 351 | 3.2 | 4.8 | 0.00 | 0.00 | 0.00 | 66 | 1015.8 |
| 20260508154753 | 31 | 314 | 3.2 | 6.4 | 0.00 | 0.00 | 0.00 | 65 | 1015.9 |
| 20260508154635 | 31 | 314 | 3.2 | 6.4 | 0.00 | 0.00 | 0.00 | 65 | 1015.9 |
| 20260508154135 | 31 | 360 | 3.2 | 6.4 | 0.00 | 0.00 | 0.00 | 66 | 1016.0 |
| 20260508153635 | 31 | 344 | 3.2 | 8.0 | 0.00 | 0.00 | 0.00 | 68 | 1016.1 |
| 20260508153105 | 30 | 325 | 3.2 | 8.0 | 0.00 | 0.00 | 0.00 | 69 | 1016.1 |
| 20260508152035 | 30 | 331 | 3.2 | 4.8 | 0.00 | 0.00 | 0.00 | 69 | 1016.3 |
| 20260508145035 | 30 | 334 | 4.8 | 9.7 | 0.00 | 0.00 | 0.00 | 72 | 1016.4 |
| 20260508144505 | 30 | 360 | 3.2 | 8.0 | 0.00 | 0.00 | 0.00 | 73 | 1016.4 |
| 20260508144005 | 29 | 16 | 3.2 | 6.4 | 0.00 | 0.00 | 0.00 | 76 | 1016.4 |
| 20260508142935 | 28 | 330 | 3.2 | 6.4 | 0.00 | 0.00 | 0.00 | 79 | 1016.5 |
| 20260508141905 | 28 | 323 | 3.2 | 6.4 | 0.00 | 0.00 | 0.00 | 79 | 1016.3 |
| 20260508140835 | 28 | 5 | 3.2 | 6.4 | 0.00 | 0.00 | 0.00 | 81 | 1016.4 |
| 20260508140335 | 28 | 357 | 3.2 | 6.4 | 0.00 | 0.00 | 0.00 | 81 | 1016.4 |